DELTA 1 DEB, 10841

Orbit data source: Space-Track

DELTA 1 DEB, 10841 is space debris in SSO originally from a launch on Thu, 29 Jul 1976 UTC launched from the Air Force Western Test Range (AFWTR). Debris objects in space refer to the collection of defunct objects orbiting the Earth. Examples of debris include non-operational satellites, rocket bodies, and fragments generated from explosions, collisions, or faulty payload assembly.

Loading next visibility...
Identifier
10841, 1976-077CM
Orbit
SSO
Country
Flag of USUS
Related business
Manufacturer
Unknown
Mission
Spacecraft
Bus & Motor
Unknown
Mass
Unknown
Launch date (UTC)
1976-07-29 (50 years ago)
Launch vehicle
Unknown
Launch site
Air Force Western Test Range (AFWTR)
Object type
Payload
Rocket body
Debris
Shape & HBR
Unknown shape, 0.1 m
Radar Cross Section
Small (<0.1 m²)

Expand to show TLE details & history
Last TLE update: 15 hours ago

TLE from 15 hours ago
0 DELTA 1 DEB
1 10841U 76077CM  26111.88008824 -.00000021  00000-0  15871-3 0  9999
2 10841 101.9472  97.1023 0065822 224.4791 165.8804 12.53068150272592
Epoch: 2026-04-21T21:07Z
TLE epoch observation values (Epoch: 2026-04-21T21:07:19.623Z)
Latitude
29.86075°
Longitude
-76.62223°
Altitude
1,505.138 km
Speed
7.092 km/s
True Right ascension
06h 00m 38s
True Declination
29° 43' 36"
Sunlit
Object was in daylight at epoch
Visualization orbit readout
Latitude
Unknown
Longitude
Unknown
Altitude
Unknown
Speed
Unknown
Apparent Right ascension
Unknown
Apparent Declination
Unknown
Sunlit
N/A
Visualization observer readout
Local Sidereal Time
18:55:47
Azimuth
Unknown
Elevation
Unknown
Doppler factor
Unknown
Orbital elements
Apogee altitude
1,500.764 km
Perigee altitude
1,397.721 km
Semi-major axis
7,827.379 km
Eccentricity
0.00658
Inclination
101.9472°
RAAN
97.1023°
Arg. of periapsis
224.4791°
True anomaly
166.06294°
Mean anomaly
165.8804°
Eccentric anomaly
165.97182°
Mean motion
3.13414 °/min
Orbital period
114.86 mins
BSTAR
0.00015871
Loading maneuver chart data...
Computing Atmospheric mass density...
Loading historical data...
Loading historical data...
Loading historical data...
Loading historical data...
Loading historical data...
Loading historical data...
Loading historical data...

Documentation

Showing up to 5 results
|